STARLINK-11730, 64074

Orbit data source: Space-Track

STARLINK-11730, 64074 is a payload satellite owned by SpaceX/Seattle (US) in LEO that was launched on Wed, 21 May 2025 UTC via an FALCON 9 launch vehicle from the Air Force Eastern Test Range (AFETR). Payload-class satellites include a variety of spacecraft equipped with specific instruments for various scientific and technological missions. These include communications satellites like Starlink; space stations such as the ISS; scientific satellites like the Hubble; Earth observation satellites from companies like Planet Labs, Umbra, and HawkEye 360; GPS; miniature CubeSats for education and research; and military/defense satellites.

Loading next visibility...
Identifier
64074, 2025-107L
Orbit
LEO
Country
Flag of USUS
Related business
Manufacturer
SpaceX/Seattle
Mission
Operational Commercial Communications
Bus & Motor
STARLINK V2MD, Unknown motor
Mass
960 kg wet, ~910 kg dry
Launch date (UTC)
2025-05-21 (1 year ago)
Launch vehicle
FALCON 9
Launch site
Air Force Eastern Test Range (AFETR)
Object type
Payload
Rocket body
Debris
Shape & HBR
Box + 2 Pan, 18.1 m
Radar Cross Section
36.964 m², Large (>1 m²)

Expand to show TLE details & history
Last TLE update: 11 hours ago

TLE from 11 hours ago
0 STARLINK-11730
1 64074U 25107L   26171.37085510  .00137195  00000-0  10558-2 0  9999
2 64074  43.0003 199.6142 0001207 277.7285  82.3445 15.70824092 63444
Epoch: 2026-06-20T08:54Z
TLE epoch observation values (Epoch: 2026-06-20T08:54:01.880Z)
Latitude
-0.00006°
Longitude
157.51985°
Altitude
356.204 km
Speed
7.697 km/s
True Right ascension
13h 18m 27s
True Declination
0° 00' 00"
Sunlit
Object was in partial shadow at epoch
Visualization orbit readout
Latitude
Unknown
Longitude
Unknown
Altitude
Unknown
Speed
Unknown
Apparent Right ascension
Unknown
Apparent Declination
Unknown
Sunlit
N/A
Visualization observer readout
Local Sidereal Time
07:18:43
Azimuth
Unknown
Elevation
Unknown
Doppler factor
Unknown
Orbital elements
Apogee altitude
359.335 km
Perigee altitude
357.709 km
Semi-major axis
6,736.659 km
Eccentricity
0.00012
Inclination
43.0003°
RAAN
199.6142°
Arg. of periapsis
277.7285°
True anomaly
82.35821°
Mean anomaly
82.3445°
Eccentric anomaly
82.35135°
Mean motion
3.92533 °/min
Orbital period
91.71 mins
BSTAR
0.0010558
Loading maneuver chart data...
Computing Atmospheric mass density...
Loading historical data...
Loading historical data...
Loading historical data...
Loading historical data...
Loading historical data...
Loading historical data...
Loading historical data...

Documentation

Showing up to 5 results
|